QPF
0.01 0.01 0.00 0.01 0.01 0.02 0.02 0.03 0.03 0.02 0.01 0.01 0.01 0.02 0.03 0.05 0.05 0.04 0.04 0.04 0.05 0.05 0.05 0.05 0.07 0.07 0.10 0.11 0.12 0.14 0.13 0.12 0.10 0.09 0.08 0.09 0.12 0.12 0.11 0.10 0.09 0.07 0.06
0.00 0.00 0.01 0.01 0.01 0.02 0.03 0.03 0.03 0.02 0.01 0.01 0.01 0.03 0.04 0.03 0.04 0.04 0.04 0.06 0.07 0.07 0.07 0.08 0.08 0.08 0.10 0.12 0.13 0.14 0.13 0.12 0.11 0.09 0.09 0.10 0.11 0.10 0.09 0.08 0.07 0.07 0.07
0.01 0.01 0.01 0.01 0.01 0.01 0.02 0.02 0.02 0.02 0.02 0.02 0.02 0.02 0.03 0.03 0.04 0.05 0.06 0.07 0.07 0.06 0.06 0.06 0.08 0.09 0.09 0.09 0.08 0.08 0.07 0.08 0.09 0.09 0.09 0.09 0.09 0.09 0.10 0.09 0.10 0.13 0.12
0.01 0.01 0.02 0.02 0.02 0.02 0.01 0.01 0.01 0.01 0.01 0.02 0.02 0.02 0.03 0.04 0.05 0.05 0.06 0.06 0.05 0.05 0.04 0.04 0.04 0.06 0.10 0.12 0.11 0.10 0.09 0.08 0.08 0.09 0.10 0.10 0.09 0.09 0.09 0.09 0.12 0.12 0.12
0.00 0.01 0.01 0.01 0.01 0.01 0.01 0.01 0.01 0.00 0.00 0.01 0.01 0.02 0.03 0.03 0.04 0.05 0.05 0.04 0.03 0.03 0.03 0.03 0.04 0.06 0.10 0.12 0.11 0.11 0.11 0.12 0.13 0.13 0.11 0.09 0.09 0.10 0.07 0.06 0.07 0.08 0.08
0.01 0.01 0.01 0.01 0.01 0.01 0.01 0.00 0.00 0.00 0.01 0.01 0.01 0.01 0.02 0.03 0.03 0.04 0.04 0.04 0.03 0.03 0.03 0.04 0.02 0.02 0.04 0.08 0.09 0.09 0.11 0.12 0.11 0.10 0.09 0.08 0.08 0.09 0.08 0.06 0.05 0.06 0.06
0.01 0.01 0.01 0.01 0.01 0.01 0.00 0.00 0.00 0.01 0.01 0.02 0.02 0.02 0.02 0.02 0.03 0.04 0.04 0.04 0.03 0.03 0.03 0.03 0.02 0.02 0.02 0.04 0.09 0.10 0.12 0.14 0.15 0.15 0.15 0.12 0.10 0.08 0.06 0.04 0.04 0.04 0.05
0.01 0.01 0.01 0.01 0.01 0.01 0.00 0.00 0.00 0.00 0.01 0.02 0.02 0.03 0.02 0.02 0.02 0.02 0.03 0.02 0.02 0.02 0.02 0.02 0.01 0.02 0.01 0.02 0.05 0.06 0.07 0.07 0.07 0.06 0.07 0.07 0.05 0.05 0.03 0.03 0.02 0.02 0.03
0.01 0.01 0.01 0.02 0.02 0.01 0.01 0.00 0.00 0.01 0.03 0.03 0.03 0.02 0.01 0.02 0.03 0.03 0.03 0.02 0.01 0.01 0.02 0.01 0.01 0.01 0.01 0.01 0.01 0.02 0.03 0.04 0.04 0.02 0.02 0.03 0.03 0.02 0.02 0.01 0.01 0.01 0.02
0.01 0.01 0.00 0.01 0.01 0.01 0.01 0.00 0.01 0.01 0.02 0.02 0.02 0.03 0.03 0.03 0.03 0.04 0.04 0.02 0.01 0.01 0.01 0.00 0.00 0.00 0.00 0.00 0.01 0.01 0.01 0.01 0.01 0.01 0.01 0.01 0.01 0.00 0.00 0.00 0.01 0.01 0.01
0.02 0.02 0.01 0.01 0.01 0.01 0.01 0.01 0.00 0.01 0.02 0.03 0.04 0.05 0.04 0.03 0.02 0.03 0.04 0.03 0.02 0.01 0.01 0.00 0.00 0.00 0.00 0.00 0.01 0.01 0.01 0.01 0.01 0.01 0.01 0.00 0.00 0.00 0.00 0.00 0.01 0.00 0.01
0.02 0.02 0.02 0.02 0.02 0.02 0.01 0.00 0.01 0.01 0.02 0.02 0.02 0.02 0.03 0.04 0.04 0.03 0.02 0.02 0.01 0.01 0.01 0.00 0.00 0.00 0.01 0.01 0.01 0.01 0.01 0.01 0.00 0.00 0.00 0.00 0.00 0.00 0.00 0.00 0.00 0.01 0.01
0.02 0.02 0.02 0.02 0.02 0.01 0.01 0.01 0.01 0.01 0.02 0.02 0.02 0.02 0.01 0.03 0.05 0.05 0.03 0.02 0.02 0.01 0.01 0.01 0.01 0.01 0.02 0.01 0.01 0.01 0.01 0.00 0.00 0.00 0.00 0.00 0.00 0.00 0.00 0.00 0.00 0.00 0.01
0.02 0.02 0.02 0.02 0.02 0.03 0.03 0.04 0.04 0.03 0.03 0.04 0.05 0.04 0.03 0.02 0.02 0.03 0.03 0.02 0.02 0.02 0.01 0.01 0.01 0.01 0.01 0.00 0.00 0.00 0.00 0.00 0.00 0.00 0.00 0.00 0.00 0.00 0.00 0.00 0.00 0.00 0.01
0.02 0.02 0.03 0.04 0.06 0.08 0.08 0.07 0.04 0.02 0.02 0.03 0.04 0.04 0.03 0.02 0.02 0.02 0.02 0.02 0.02 0.01 0.01 0.01 0.00 0.00 0.00 0.00 0.00 0.00 0.00 0.00 0.00 0.00 0.00 0.00 0.00 0.00 0.00 0.00 0.00 0.00 0.00
0.04 0.04 0.05 0.06 0.08 0.07 0.05 0.03 0.02 0.01 0.01 0.01 0.01 0.01 0.02 0.02 0.02 0.01 0.01 0.01 0.01 0.01 0.00 0.00 0.00 0.00 0.00 0.00 0.00 0.00 0.00 0.00 0.00 0.00 0.00 0.00 0.00 0.00 0.00 0.00 0.00 0.00 0.00
0.05 0.05 0.05 0.06 0.06 0.04 0.03 0.02 0.02 0.02 0.01 0.01 0.01 0.00 0.00 0.01 0.01 0.01 0.00 0.01 0.01 0.01 0.00 0.00 0.00 0.01 0.01 0.00 0.00 0.00 0.00 0.00 0.00 0.00 0.00 0.00 0.00 0.00 0.00 0.00 0.00 0.00 0.00
0.06 0.07 0.06 0.05 0.04 0.03 0.03 0.02 0.02 0.02 0.01 0.01 0.01 0.00 0.00 0.00 0.00 0.00 0.00 0.00 0.00 0.00 0.00 0.01 0.00 0.00 0.00 0.00 0.01 0.00 0.00 0.00 0.00 0.00 0.00 0.00 0.00 0.00 0.00 0.00 0.00 0.00 0.00
0.03 0.04 0.06 0.06 0.07 0.07 0.06 0.05 0.04 0.03 0.02 0.01 0.01 0.00 0.00 0.00 0.00 0.00 0.00 0.00 0.01 0.01 0.00 0.00 0.00 0.00 0.00 0.01 0.00 0.00 0.00 0.00 0.00 0.00 0.00 0.00 0.00 0.00 0.00 0.00 0.00 0.00 0.00
0.02 0.04 0.05 0.04 0.04 0.05 0.05 0.03 0.02 0.02 0.03 0.02 0.01 0.00 0.00 0.00 0.00 0.00 0.00 0.00 0.00 0.00 0.00 0.00 0.00 0.00 0.01 0.01 0.00 0.00 0.00 0.00 0.00 0.00 0.00 0.00 0.00 0.00 0.00 0.00 0.00 0.00 0.00
0.02 0.02 0.03 0.02 0.02 0.03 0.03 0.02 0.02 0.02 0.02 0.01 0.01 0.01 0.01 0.01 0.00 0.00 0.00 0.00 0.00 0.01 0.01 0.01 0.01 0.01 0.00 0.00 0.00 0.00 0.00 0.00 0.00 0.00 0.00 0.00 0.00 0.00 0.00 0.00 0.00 0.00 0.00
0.02 0.03 0.04 0.04 0.04 0.04 0.03 0.02 0.02 0.02 0.02 0.02 0.02 0.03 0.03 0.03 0.02 0.01 0.01 0.02 0.01 0.01 0.01 0.01 0.01 0.01 0.01 0.01 0.01 0.01 0.01 0.01 0.01 0.00 0.00 0.00 0.00 0.00 0.00 0.00 0.00 0.00 0.00
0.02 0.03 0.03 0.03 0.03 0.03 0.03 0.02 0.02 0.02 0.02 0.03 0.03 0.04 0.05 0.05 0.05 0.04 0.02 0.02 0.02 0.01 0.01 0.01 0.01 0.01 0.01 0.01 0.01 0.01 0.01 0.01 0.00 0.00 0.00 0.00 0.00 0.00 0.00 0.00 0.00 0.00 0.00
0.02 0.03 0.03 0.03 0.02 0.02 0.02 0.01 0.02 0.03 0.03 0.02 0.02 0.03 0.04 0.05 0.05 0.05 0.03 0.02 0.01 0.01 0.01 0.00 0.00 0.00 0.01 0.01 0.01 0.01 0.01 0.01 0.00 0.00 0.00 0.00 0.00 0.00 0.00 0.00 0.00 0.00 0.01
0.02 0.02 0.02 0.03 0.03 0.03 0.02 0.01 0.01 0.02 0.01 0.02 0.02 0.02 0.03 0.03 0.03 0.03 0.03 0.02 0.01 0.01 0.00 0.00 0.00 0.00 0.00 0.01 0.01 0.01 0.01 0.01 0.01 0.01 0.01 0.01 0.01 0.01 0.00 0.00 0.01 0.00 0.01
0.01 0.01 0.01 0.02 0.03 0.03 0.02 0.01 0.01 0.01 0.01 0.02 0.02 0.03 0.02 0.02 0.01 0.01 0.01 0.01 0.01 0.01 0.00 0.00 0.00 0.00 0.01 0.01 0.01 0.02 0.02 0.02 0.01 0.01 0.01 0.01 0.01 0.01 0.01 0.01 0.01 0.01 0.01
MSLP
1016.22 1016.44 1016.68 1016.90 1017.08 1017.22 1017.30 1017.34 1017.34 1017.32 1017.29 1017.23 1017.16 1017.06 1016.92 1016.75 1016.55 1016.34 1016.15 1016.00 1015.91 1015.89 1015.93 1016.02 1016.12 1016.21 1016.24 1016.20 1016.09 1015.93 1015.76 1015.64 1015.61 1015.71 1015.98 1016.39 1016.91 1017.49 1018.05 1018.51 1018.80 1018.87 1018.69
1016.03 1016.23 1016.45 1016.66 1016.84 1016.98 1017.09 1017.16 1017.21 1017.25 1017.27 1017.29 1017.29 1017.26 1017.19 1017.09 1016.95 1016.80 1016.64 1016.50 1016.40 1016.35 1016.33 1016.35 1016.37 1016.37 1016.32 1016.23 1016.09 1015.93 1015.80 1015.73 1015.78 1015.98 1016.33 1016.83 1017.44 1018.08 1018.68 1019.17 1019.48 1019.56 1019.40
1015.85 1016.04 1016.24 1016.44 1016.60 1016.74 1016.86 1016.95 1017.03 1017.11 1017.20 1017.28 1017.35 1017.40 1017.42 1017.40 1017.34 1017.25 1017.15 1017.04 1016.95 1016.87 1016.82 1016.78 1016.73 1016.66 1016.56 1016.41 1016.25 1016.09 1015.97 1015.94 1016.04 1016.29 1016.70 1017.24 1017.87 1018.53 1019.14 1019.63 1019.96 1020.07 1019.96
1015.65 1015.85 1016.05 1016.23 1016.39 1016.52 1016.64 1016.74 1016.85 1016.96 1017.10 1017.24 1017.38 1017.50 1017.60 1017.66 1017.68 1017.66 1017.62 1017.55 1017.48 1017.42 1017.35 1017.28 1017.19 1017.07 1016.93 1016.75 1016.57 1016.40 1016.30 1016.28 1016.40 1016.65 1017.06 1017.59 1018.19 1018.82 1019.40 1019.88 1020.21 1020.35 1020.32
1015.43 1015.66 1015.87 1016.06 1016.22 1016.35 1016.46 1016.58 1016.70 1016.84 1017.01 1017.19 1017.38 1017.57 1017.73 1017.86 1017.94 1017.99 1018.00 1017.99 1017.96 1017.91 1017.86 1017.78 1017.68 1017.55 1017.39 1017.21 1017.02 1016.86 1016.75 1016.73 1016.82 1017.05 1017.41 1017.88 1018.41 1018.97 1019.49 1019.92 1020.24 1020.42 1020.47
1015.20 1015.47 1015.71 1015.92 1016.09 1016.23 1016.36 1016.48 1016.62 1016.78 1016.97 1017.18 1017.40 1017.62 1017.82 1017.99 1018.12 1018.21 1018.28 1018.31 1018.32 1018.31 1018.28 1018.23 1018.15 1018.04 1017.89 1017.72 1017.54 1017.38 1017.27 1017.23 1017.29 1017.46 1017.75 1018.12 1018.56 1019.01 1019.45 1019.83 1020.12 1020.32 1020.44
1014.99 1015.31 1015.59 1015.83 1016.03 1016.19 1016.34 1016.48 1016.63 1016.80 1017.00 1017.21 1017.44 1017.66 1017.87 1018.06 1018.21 1018.33 1018.42 1018.49 1018.54 1018.57 1018.58 1018.57 1018.53 1018.45 1018.35 1018.21 1018.06 1017.91 1017.80 1017.74 1017.76 1017.86 1018.06 1018.33 1018.66 1019.00 1019.35 1019.66 1019.92 1020.13 1020.31
1014.83 1015.20 1015.52 1015.80 1016.03 1016.22 1016.39 1016.54 1016.70 1016.88 1017.07 1017.28 1017.49 1017.70 1017.89 1018.06 1018.21 1018.33 1018.44 1018.53 1018.61 1018.68 1018.74 1018.77 1018.78 1018.76 1018.71 1018.61 1018.50 1018.38 1018.27 1018.20 1018.18 1018.23 1018.35 1018.52 1018.75 1018.99 1019.25 1019.50 1019.72 1019.93 1020.14
1014.77 1015.16 1015.51 1015.81 1016.07 1016.28 1016.47 1016.64 1016.80 1016.97 1017.15 1017.33 1017.52 1017.70 1017.86 1018.01 1018.14 1018.25 1018.36 1018.47 1018.57 1018.67 1018.77 1018.86 1018.92 1018.95 1018.94 1018.90 1018.83 1018.74 1018.65 1018.57 1018.53 1018.54 1018.60 1018.71 1018.85 1019.02 1019.21 1019.40 1019.59 1019.79 1020.00
1014.81 1015.20 1015.55 1015.85 1016.11 1016.33 1016.52 1016.69 1016.85 1017.01 1017.17 1017.33 1017.49 1017.64 1017.77 1017.90 1018.01 1018.12 1018.23 1018.34 1018.47 1018.60 1018.73 1018.85 1018.96 1019.03 1019.07 1019.07 1019.03 1018.97 1018.90 1018.84 1018.80 1018.78 1018.81 1018.88 1018.97 1019.10 1019.24 1019.39 1019.55 1019.72 1019.92
1014.95 1015.29 1015.60 1015.88 1016.12 1016.32 1016.49 1016.65 1016.79 1016.94 1017.08 1017.22 1017.36 1017.49 1017.61 1017.73 1017.84 1017.96 1018.08 1018.21 1018.35 1018.51 1018.66 1018.81 1018.93 1019.03 1019.10 1019.13 1019.12 1019.08 1019.04 1018.99 1018.95 1018.94 1018.96 1019.02 1019.09 1019.20 1019.31 1019.44 1019.58 1019.73 1019.90
1015.16 1015.41 1015.65 1015.86 1016.04 1016.19 1016.33 1016.45 1016.58 1016.70 1016.84 1016.97 1017.11 1017.25 1017.39 1017.52 1017.66 1017.80 1017.95 1018.10 1018.27 1018.43 1018.60 1018.75 1018.88 1018.98 1019.05 1019.09 1019.09 1019.07 1019.04 1019.01 1019.00 1019.00 1019.03 1019.09 1019.18 1019.28 1019.39 1019.51 1019.63 1019.75 1019.89
1015.38 1015.52 1015.65 1015.77 1015.86 1015.94 1016.02 1016.10 1016.19 1016.30 1016.43 1016.57 1016.74 1016.91 1017.09 1017.28 1017.47 1017.66 1017.84 1018.03 1018.21 1018.39 1018.55 1018.69 1018.80 1018.89 1018.93 1018.96 1018.95 1018.94 1018.92 1018.90 1018.91 1018.94 1018.99 1019.08 1019.18 1019.29 1019.41 1019.52 1019.64 1019.75 1019.86
1015.59 1015.60 1015.60 1015.59 1015.58 1015.57 1015.57 1015.60 1015.65 1015.75 1015.89 1016.06 1016.27 1016.50 1016.75 1017.00 1017.26 1017.51 1017.75 1017.97 1018.17 1018.34 1018.48 1018.59 1018.66 1018.71 1018.72 1018.71 1018.69 1018.67 1018.65 1018.65 1018.68 1018.74 1018.82 1018.93 1019.06 1019.19 1019.32 1019.45 1019.56 1019.66 1019.75
1015.75 1015.62 1015.49 1015.35 1015.22 1015.11 1015.03 1015.00 1015.02 1015.11 1015.26 1015.47 1015.73 1016.03 1016.36 1016.69 1017.03 1017.34 1017.62 1017.87 1018.07 1018.22 1018.33 1018.39 1018.41 1018.40 1018.37 1018.32 1018.28 1018.25 1018.24 1018.26 1018.31 1018.40 1018.52 1018.66 1018.81 1018.96 1019.11 1019.25 1019.36 1019.46 1019.54
1015.86 1015.60 1015.33 1015.07 1014.83 1014.62 1014.46 1014.37 1014.36 1014.44 1014.60 1014.84 1015.16 1015.53 1015.92 1016.33 1016.72 1017.08 1017.39 1017.64 1017.82 1017.94 1018.00 1018.00 1017.97 1017.90 1017.82 1017.75 1017.69 1017.67 1017.67 1017.72 1017.81 1017.93 1018.08 1018.26 1018.44 1018.62 1018.78 1018.93 1019.05 1019.16 1019.24
1015.90 1015.53 1015.16 1014.79 1014.44 1014.14 1013.91 1013.77 1013.72 1013.78 1013.95 1014.22 1014.57 1014.99 1015.43 1015.87 1016.30 1016.67 1016.98 1017.22 1017.37 1017.44 1017.44 1017.39 1017.30 1017.19 1017.09 1017.00 1016.95 1016.94 1016.98 1017.07 1017.20 1017.37 1017.56 1017.77 1017.98 1018.18 1018.37 1018.53 1018.67 1018.78 1018.88
1015.90 1015.45 1014.98 1014.52 1014.09 1013.71 1013.41 1013.21 1013.13 1013.17 1013.33 1013.60 1013.96 1014.39 1014.84 1015.30 1015.72 1016.08 1016.36 1016.55 1016.66 1016.67 1016.62 1016.53 1016.40 1016.28 1016.17 1016.10 1016.08 1016.12 1016.22 1016.36 1016.55 1016.77 1017.01 1017.25 1017.49 1017.71 1017.91 1018.09 1018.24 1018.38 1018.50
1015.87 1015.35 1014.81 1014.27 1013.77 1013.32 1012.95 1012.70 1012.57 1012.57 1012.70 1012.95 1013.29 1013.69 1014.13 1014.56 1014.95 1015.27 1015.51 1015.65 1015.70 1015.68 1015.59 1015.47 1015.35 1015.23 1015.16 1015.14 1015.18 1015.28 1015.45 1015.66 1015.92 1016.19 1016.47 1016.75 1017.01 1017.24 1017.45 1017.64 1017.81 1017.96 1018.10
1015.81 1015.23 1014.62 1014.02 1013.44 1012.93 1012.50 1012.18 1011.99 1011.94 1012.02 1012.22 1012.52 1012.88 1013.27 1013.65 1013.99 1014.26 1014.45 1014.55 1014.58 1014.53 1014.44 1014.33 1014.24 1014.17 1014.16 1014.21 1014.34 1014.53 1014.77 1015.06 1015.37 1015.69 1016.00 1016.30 1016.57 1016.81 1017.02 1017.22 1017.39 1017.56 1017.72
1015.70 1015.06 1014.40 1013.73 1013.09 1012.50 1012.00 1011.61 1011.35 1011.23 1011.25 1011.38 1011.62 1011.92 1012.25 1012.58 1012.87 1013.11 1013.27 1013.36 1013.39 1013.36 1013.30 1013.25 1013.22 1013.24 1013.31 1013.46 1013.68 1013.95 1014.27 1014.61 1014.97 1015.31 1015.64 1015.93 1016.19 1016.42 1016.62 1016.81 1016.99 1017.16 1017.33
1015.55 1014.85 1014.12 1013.38 1012.66 1012.00 1011.42 1010.95 1010.62 1010.42 1010.36 1010.43 1010.60 1010.84 1011.13 1011.42 1011.69 1011.91 1012.08 1012.20 1012.27 1012.30 1012.33 1012.36 1012.44 1012.56 1012.74 1012.98 1013.29 1013.63 1014.00 1014.38 1014.74 1015.08 1015.39 1015.65 1015.88 1016.08 1016.26 1016.42 1016.58 1016.75 1016.93
1015.35 1014.59 1013.78 1012.97 1012.17 1011.42 1010.76 1010.21 1009.79 1009.52 1009.38 1009.39 1009.50 1009.71 1009.97 1010.25 1010.53 1010.79 1011.01 1011.20 1011.36 1011.50 1011.64 1011.81 1012.00 1012.24 1012.52 1012.85 1013.22 1013.60 1013.99 1014.36 1014.70 1015.00 1015.26 1015.46 1015.64 1015.78 1015.91 1016.04 1016.19 1016.34 1016.52
1015.15 1014.31 1013.43 1012.54 1011.66 1010.82 1010.08 1009.44 1008.95 1008.60 1008.40 1008.35 1008.44 1008.62 1008.88 1009.19 1009.52 1009.85 1010.17 1010.47 1010.76 1011.04 1011.32 1011.62 1011.94 1012.29 1012.66 1013.05 1013.45 1013.85 1014.22 1014.55 1014.83 1015.05 1015.23 1015.35 1015.45 1015.53 1015.60 1015.69 1015.81 1015.95 1016.11
1014.98 1014.08 1013.13 1012.16 1011.21 1010.30 1009.48 1008.77 1008.20 1007.79 1007.55 1007.46 1007.53 1007.72 1008.01 1008.37 1008.77 1009.20 1009.64 1010.07 1010.50 1010.93 1011.35 1011.78 1012.21 1012.65 1013.09 1013.52 1013.92 1014.29 1014.60 1014.86 1015.06 1015.19 1015.27 1015.31 1015.32 1015.33 1015.35 1015.40 1015.48 1015.60 1015.76
1014.91 1013.97 1012.97 1011.95 1010.93 1009.96 1009.08 1008.32 1007.70 1007.24 1006.96 1006.86 1006.92 1007.12 1007.45 1007.87 1008.36 1008.89 1009.44 1010.01 1010.57 1011.13 1011.68 1012.21 1012.73 1013.23 1013.69 1014.12 1014.50 1014.82 1015.06 1015.24 1015.34 1015.38 1015.37 1015.32 1015.26 1015.21 1015.18 1015.19 1015.25 1015.35 1015.49
Thickness
5780 5776 5772 5770 5767 5764 5760 5758 5755 5753 5751 5749 5748 5747 5745 5744 5742 5740 5739 5737 5736 5734 5734 5732 5731 5731 5731 5731 5729 5726 5723 5720 5713 5711 5710 5707 5704 5702 5700 5698 5696 5694 5691
5779 5774 5770 5767 5765 5762 5758 5756 5753 5751 5749 5747 5745 5743 5742 5740 5739 5737 5734 5733 5732 5730 5729 5727 5726 5727 5725 5725 5723 5720 5718 5715 5711 5705 5703 5700 5696 5694 5692 5690 5688 5686 5683
5778 5773 5768 5765 5762 5759 5756 5753 5751 5748 5746 5744 5742 5740 5738 5736 5734 5732 5730 5728 5727 5725 5724 5722 5721 5720 5718 5718 5716 5714 5713 5711 5707 5702 5697 5693 5689 5687 5684 5682 5680 5677 5675
5776 5771 5766 5762 5759 5756 5753 5750 5747 5744 5742 5740 5739 5736 5734 5732 5730 5727 5725 5723 5721 5719 5718 5716 5715 5714 5711 5711 5709 5707 5705 5703 5700 5696 5691 5686 5682 5679 5677 5674 5671 5668 5665
5773 5767 5763 5759 5756 5753 5749 5745 5742 5740 5738 5735 5733 5731 5729 5727 5724 5721 5719 5717 5715 5712 5711 5709 5706 5703 5701 5701 5701 5698 5697 5696 5693 5689 5683 5679 5675 5671 5668 5666 5663 5660 5655
5769 5764 5760 5756 5752 5748 5744 5740 5737 5734 5732 5729 5727 5724 5722 5719 5713 5712 5712 5710 5707 5705 5703 5701 5699 5696 5693 5691 5689 5687 5686 5685 5684 5681 5676 5671 5665 5663 5659 5657 5654 5652 5647
5765 5761 5756 5752 5748 5744 5740 5735 5732 5728 5725 5723 5720 5717 5713 5707 5704 5703 5703 5703 5700 5697 5695 5693 5693 5689 5686 5685 5681 5679 5676 5673 5671 5671 5666 5661 5657 5653 5651 5648 5644 5643 5637
5761 5756 5752 5748 5743 5739 5734 5729 5725 5722 5719 5716 5712 5710 5706 5700 5697 5696 5695 5695 5693 5689 5687 5685 5683 5679 5677 5676 5675 5672 5668 5664 5662 5660 5657 5652 5648 5644 5641 5639 5635 5631 5628
5757 5752 5748 5743 5738 5733 5728 5723 5719 5716 5712 5709 5706 5702 5698 5693 5689 5689 5689 5689 5685 5681 5678 5675 5674 5670 5665 5665 5666 5663 5659 5654 5649 5646 5643 5640 5636 5633 5631 5631 5628 5625 5620
5753 5748 5744 5739 5734 5728 5723 5718 5714 5710 5706 5703 5699 5695 5691 5687 5682 5681 5681 5683 5678 5675 5671 5667 5661 5658 5656 5655 5657 5654 5649 5645 5643 5640 5635 5631 5629 5625 5622 5620 5620 5617 5613
5749 5744 5739 5734 5729 5723 5718 5713 5708 5704 5700 5696 5691 5688 5684 5679 5675 5673 5672 5675 5672 5669 5666 5660 5653 5647 5646 5645 5645 5643 5638 5636 5635 5632 5628 5625 5621 5617 5614 5610 5607 5606 5602
5743 5739 5733 5728 5724 5718 5712 5706 5702 5698 5693 5689 5685 5681 5678 5673 5669 5666 5664 5663 5662 5660 5657 5652 5644 5639 5637 5635 5634 5629 5628 5628 5628 5625 5620 5616 5611 5607 5603 5599 5594 5591 5587
5736 5731 5726 5721 5716 5711 5706 5701 5697 5693 5691 5686 5682 5678 5674 5669 5662 5657 5655 5653 5651 5650 5645 5638 5634 5631 5629 5627 5622 5620 5621 5621 5618 5614 5610 5606 5602 5597 5594 5590 5585 5581 5578
5729 5723 5719 5714 5710 5704 5700 5697 5693 5689 5685 5681 5677 5673 5668 5663 5659 5654 5651 5646 5641 5640 5636 5630 5626 5623 5622 5618 5615 5614 5613 5610 5607 5604 5601 5597 5594 5590 5586 5583 5580 5576 5572
5721 5717 5713 5708 5703 5697 5692 5686 5683 5680 5678 5674 5672 5668 5663 5658 5650 5645 5645 5642 5639 5635 5631 5628 5625 5621 5618 5614 5610 5607 5604 5601 5598 5595 5592 5588 5585 5581 5577 5574 5569 5568 5564
5714 5710 5707 5702 5695 5689 5683 5676 5668 5667 5663 5661 5659 5657 5652 5646 5640 5636 5633 5630 5627 5624 5623 5622 5618 5614 5611 5607 5604 5599 5595 5592 5589 5586 5582 5579 5575 5572 5568 5564 5561 5558 5555
5710 5704 5701 5696 5690 5685 5680 5674 5666 5657 5652 5649 5647 5644 5641 5635 5631 5627 5623 5620 5617 5615 5617 5615 5611 5606 5603 5599 5596 5592 5588 5583 5579 5577 5573 5570 5567 5563 5560 5556 5552 5550 5546
5703 5697 5694 5690 5687 5681 5676 5671 5665 5659 5653 5646 5638 5633 5630 5626 5623 5619 5615 5613 5613 5610 5611 5608 5603 5599 5595 5591 5588 5584 5580 5575 5572 5568 5565 5562 5558 5555 5551 5548 5545 5540 5537
5695 5692 5688 5685 5680 5675 5670 5665 5660 5654 5649 5643 5636 5628 5621 5618 5614 5611 5608 5611 5611 5607 5604 5600 5596 5592 5588 5584 5580 5576 5572 5568 5563 5560 5557 5552 5549 5546 5543 5540 5537 5529 5527
5686 5682 5679 5678 5673 5668 5663 5658 5654 5648 5643 5638 5633 5627 5620 5616 5614 5608 5605 5606 5604 5601 5597 5592 5588 5584 5580 5576 5572 5568 5565 5560 5555 5553 5549 5544 5541 5538 5535 5531 5529 5526 5523
5678 5673 5669 5669 5666 5661 5657 5652 5647 5643 5638 5632 5628 5622 5616 5615 5612 5607 5603 5599 5597 5593 5588 5585 5581 5577 5573 5569 5565 5562 5557 5554 5549 5545 5541 5537 5534 5531 5527 5525 5522 5519 5516
5672 5667 5664 5661 5657 5653 5649 5645 5641 5636 5632 5626 5620 5614 5607 5608 5606 5602 5598 5593 5590 5585 5580 5577 5574 5570 5566 5562 5558 5554 5550 5546 5541 5537 5533 5530 5526 5523 5521 5518 5515 5512 5509
5663 5660 5656 5653 5649 5643 5640 5638 5634 5630 5626 5620 5616 5611 5605 5602 5600 5595 5591 5586 5582 5577 5573 5569 5566 5562 5558 5554 5550 5546 5542 5538 5534 5529 5526 5523 5520 5517 5514 5510 5507 5504 5502
5657 5653 5649 5645 5641 5638 5634 5631 5627 5624 5620 5615 5610 5606 5601 5596 5592 5587 5583 5579 5574 5570 5565 5562 5558 5554 5549 5545 5542 5538 5533 5528 5524 5521 5517 5515 5512 5510 5507 5503 5500 5498 5494
5649 5646 5643 5638 5635 5632 5628 5625 5621 5617 5613 5609 5605 5600 5595 5590 5586 5581 5576 5572 5567 5563 5558 5554 5550 5546 5542 5538 5534 5529 5523 5518 5514 5512 5508 5506 5504 5501 5499 5496 5494 5490 5487
5640 5637 5635 5632 5628 5625 5622 5618 5615 5611 5607 5603 5599 5594 5590 5585 5580 5575 5570 5565 5561 5556 5552 5548 5543 5539 5534 5530 5525 5519 5514 5510 5506 5502 5500 5499 5497 5495 5492 5490 5487 5485 5481